Location: Napoli
(40.8639°N, 14.2562°E)
Time: 18:18:21
(UTC+02:00)

ACS3 Solar Sail - Visible Passes

Search period start: 17 July 2025 00:00
Search period end: 27 July 2025 00:00
Orbit: 911 x 1023 km, 97.4° (Epoch: 17 July)

Date Brightness Start Highest point End Pass type
(mag) Time Alt. Az. Time Alt. Az. Time Alt. Az.
17 Jul 4.3 04:35:39 10° NE 04:39:07 16° E 04:42:37 10° SE visible
18 Jul 4.0 04:57:00 10° NE 05:01:51 25° E 05:06:45 10° SE visible
21 Jul 4.5 04:22:58 10° ENE 04:25:30 13° E 04:28:02 10° ESE visible
22 Jul 4.2 04:43:47 10° NE 04:48:12 21° E 04:52:40 10° SE visible
23 Jul 3.6 05:05:26 10° NNE 05:10:48 32° E 05:16:15 10° SSE visible
26 Jul 4.3 04:30:27 10° NE 04:34:16 17° E 04:38:07 10° SE visible
